| time (UTC) | temp C | wind direction | speed KPH | gust KPH | rain 1hr cm | rain 24hr cm | rain mn cm | humidity % | barometer mb |
| 20260507154537 | 27 | 353 | 3.2 | 8.0 | 0.00 | 0.00 | 0.00 | 17 | 1013.7 |
| 20260507153037 | 27 | 238 | 4.8 | 8.0 | 0.00 | 0.00 | 0.00 | 18 | 1013.8 |
| 20260507151537 | 26 | 193 | 1.6 | 9.7 | 0.00 | 0.00 | 0.00 | 20 | 1013.7 |
| 20260507150038 | 25 | 261 | 3.2 | 8.0 | 0.00 | 0.00 | 0.00 | 23 | 1013.8 |
| 20260507144538 | 24 | 0 | 0.0 | 1.6 | 0.00 | 0.00 | 0.00 | 28 | 1013.8 |
| 20260507143037 | 22 | 272 | 1.6 | 4.8 | 0.00 | 0.00 | 0.00 | 30 | 1013.9 |
| 20260507141537 | 21 | 0 | 0.0 | 0.0 | 0.00 | 0.00 | 0.00 | 35 | 1013.8 |
| 20260507140047 | 20 | 158 | 0.0 | 1.6 | 0.00 | 0.00 | 0.00 | 38 | 1013.7 |
| 20260507134541 | 18 | 0 | 0.0 | 0.0 | 0.00 | 0.00 | 0.00 | 43 | 1013.7 |
| 20260507133035 | 17 | 0 | 0.0 | 0.0 | 0.00 | 0.00 | 0.00 | 48 | 1013.6 |
| 20260507131541 | 16 | 0 | 0.0 | 0.0 | 0.00 | 0.00 | 0.00 | 48 | 1013.3 |
| 20260507130037 | 15 | 0 | 0.0 | 1.6 | 0.00 | 0.00 | 0.00 | 50 | 1013.3 |
| 20260507124538 | 15 | 0 | 0.0 | 0.0 | 0.00 | 0.00 | 0.00 | 52 | 1013.3 |
| 20260507123036 | 15 | 0 | 0.0 | 0.0 | 0.00 | 0.00 | 0.00 | 48 | 1013.4 |
| 20260507121536 | 16 | 0 | 0.0 | 1.6 | 0.00 | 0.00 | 0.00 | 45 | 1013.3 |
| 20260507120036 | 16 | 217 | 0.0 | 3.2 | 0.00 | 0.00 | 0.00 | 46 | 1013.1 |
| 20260507114536 | 16 | 0 | 0.0 | 1.6 | 0.00 | 0.00 | 0.00 | 46 | 1013.2 |
| 20260507113040 | 16 | 217 | 1.6 | 3.2 | 0.00 | 0.00 | 0.00 | 45 | 1013.2 |
| 20260507111541 | 15 | 0 | 0.0 | 0.0 | 0.00 | 0.00 | 0.00 | 46 | 1013.2 |
| 20260507110037 | 16 | 0 | 0.0 | 0.0 | 0.00 | 0.00 | 0.00 | 47 | 1013.3 |
| 20260507104537 | 16 | 0 | 0.0 | 0.0 | 0.00 | 0.00 | 0.00 | 46 | 1013.5 |
| 20260507103039 | 16 | 0 | 0.0 | 1.6 | 0.00 | 0.00 | 0.00 | 46 | 1013.5 |
| 20260507101556 | 16 | 0 | 0.0 | 0.0 | 0.00 | 0.00 | 0.00 | 48 | 1013.6 |
| 20260507100038 | 16 | 0 | 0.0 | 0.0 | 0.00 | 0.00 | 0.00 | 43 | 1013.8 |
| 20260507094541 | 17 | 0 | 0.0 | 0.0 | 0.00 | 0.00 | 0.00 | 41 | 1013.7 |
| 20260507093034 | 17 | 0 | 0.0 | 1.6 | 0.00 | 0.00 | 0.00 | 40 | 1013.9 |
| 20260507091551 | 18 | 0 | 0.0 | 4.8 | 0.00 | 0.00 | 0.00 | 36 | 1013.9 |
| 20260507090033 | 17 | 0 | 0.0 | 1.6 | 0.00 | 0.00 | 0.00 | 39 | 1014.0 |
| 20260507084538 | 17 | 0 | 0.0 | 0.0 | 0.00 | 0.00 | 0.00 | 42 | 1014.1 |
| 20260507083041 | 18 | 0 | 0.0 | 0.0 | 0.00 | 0.00 | 0.00 | 39 | 1014.1 |
| 20260507081550 | 18 | 0 | 0.0 | 0.0 | 0.00 | 0.00 | 0.00 | 37 | 1014.2 |
| 20260507080033 | 19 | 0 | 0.0 | 0.0 | 0.00 | 0.00 | 0.00 | 37 | 1014.3 |
| 20260507074539 | 19 | 180 | 0.0 | 0.0 | 0.00 | 0.00 | 0.00 | 35 | 1014.2 |
| 20260507073054 | 20 | 0 | 0.0 | 1.6 | 0.00 | 0.00 | 0.00 | 35 | 1014.2 |
| 20260507071538 | 20 | 180 | 0.0 | 1.6 | 0.00 | 0.00 | 0.00 | 34 | 1014.1 |
| 20260507070058 | 20 | 0 | 0.0 | 0.0 | 0.00 | 0.00 | 0.00 | 35 | 1014.2 |
| 20260507064536 | 20 | 0 | 0.0 | 3.2 | 0.00 | 0.00 | 0.00 | 34 | 1014.2 |
| 20260507063037 | 20 | 176 | 0.0 | 3.2 | 0.00 | 0.00 | 0.00 | 33 | 1014.1 |
| 20260507061537 | 20 | 0 | 0.0 | 1.6 | 0.00 | 0.00 | 0.00 | 34 | 1014.2 |
| 20260507060037 | 21 | 0 | 0.0 | 0.0 | 0.00 | 0.00 | 0.00 | 33 | 1013.9 |
| 20260507054533 | 21 | 0 | 0.0 | 0.0 | 0.00 | 0.00 | 0.00 | 34 | 1014.0 |
| 20260507053042 | 22 | 0 | 0.0 | 0.0 | 0.00 | 0.00 | 0.00 | 31 | 1014.0 |
| 20260507051535 | 22 | 0 | 0.0 | 1.6 | 0.00 | 0.00 | 0.00 | 27 | 1013.9 |
| 20260507050037 | 23 | 148 | 0.0 | 0.0 | 0.00 | 0.00 | 0.00 | 27 | 1013.9 |
| 20260507044545 | 23 | 0 | 0.0 | 3.2 | 0.00 | 0.00 | 0.00 | 26 | 1013.7 |
| 20260507043041 | 23 | 154 | 0.0 | 3.2 | 0.00 | 0.00 | 0.00 | 27 | 1013.7 |
| 20260507041538 | 23 | 0 | 0.0 | 0.0 | 0.00 | 0.00 | 0.00 | 26 | 1013.6 |
| 20260507040038 | 24 | 0 | 0.0 | 0.0 | 0.00 | 0.00 | 0.00 | 25 | 1013.3 |
| 20260507034538 | 25 | 158 | 0.0 | 4.8 | 0.00 | 0.00 | 0.00 | 24 | 1013.2 |
| 20260507033037 | 25 | 154 | 0.0 | 3.2 | 0.00 | 0.00 | 0.00 | 24 | 1013.0 |
| 20260507031542 | 25 | 155 | 1.6 | 3.2 | 0.00 | 0.00 | 0.00 | 24 | 1012.8 |
| 20260507030041 | 25 | 125 | 0.0 | 1.6 | 0.00 | 0.00 | 0.00 | 24 | 1012.7 |
| 20260507024538 | 26 | 141 | 1.6 | 4.8 | 0.00 | 0.00 | 0.00 | 22 | 1012.4 |
| 20260507023037 | 26 | 136 | 1.6 | 6.4 | 0.00 | 0.00 | 0.00 | 22 | 1012.3 |
| 20260507021539 | 26 | 140 | 3.2 | 8.0 | 0.00 | 0.00 | 0.00 | 22 | 1012.3 |
| 20260507020037 | 27 | 150 | 1.6 | 9.7 | 0.00 | 0.00 | 0.00 | 21 | 1012.2 |
| 20260507014546 | 27 | 148 | 1.6 | 8.0 | 0.00 | 0.00 | 0.00 | 20 | 1012.2 |
| 20260507013038 | 28 | 134 | 3.2 | 9.7 | 0.00 | 0.00 | 0.00 | 20 | 1012.2 |
| 20260507011538 | 28 | 142 | 1.6 | 8.0 | 0.00 | 0.00 | 0.00 | 19 | 1012.1 |
| 20260507010038 | 28 | 116 | 1.6 | 8.0 | 0.00 | 0.00 | 0.00 | 18 | 1012.1 |
| 20260507004538 | 28 | 141 | 1.6 | 9.7 | 0.00 | 0.00 | 0.00 | 18 | 1012.1 |
| 20260507003034 | 29 | 150 | 3.2 | 8.0 | 0.00 | 0.00 | 0.00 | 18 | 1012.1 |
| 20260507001538 | 29 | 0 | 1.6 | 9.7 | 0.00 | 0.00 | 0.00 | 18 | 1012.0 |
| 20260507000042 | 28 | 155 | 1.6 | 11.3 | 0.00 | 0.00 | 0.00 | 19 | 1012.0 |
| 20260506234537 | 29 | 135 | 6.4 | 12.9 | 0.00 | 0.00 | 0.00 | 19 | 1012.1 |
| 20260506233037 | 28 | 139 | 1.6 | 6.4 | 0.00 | 0.00 | 0.00 | 20 | 1012.3 |
| 20260506231535 | 28 | 133 | 4.8 | 14.5 | 0.00 | 0.00 | 0.00 | 20 | 1012.3 |
| 20260506230036 | 28 | 110 | 0.0 | 11.3 | 0.00 | 0.00 | 0.00 | 19 | 1012.5 |
| 20260506224538 | 28 | 139 | 4.8 | 12.9 | 0.00 | 0.00 | 0.00 | 19 | 1012.5 |
| 20260506223038 | 28 | 136 | 4.8 | 14.5 | 0.00 | 0.00 | 0.00 | 19 | 1012.8 |
| 20260506221537 | 28 | 135 | 4.8 | 9.7 | 0.00 | 0.00 | 0.00 | 20 | 1012.9 |
| 20260506220038 | 28 | 128 | 3.2 | 8.0 | 0.00 | 0.00 | 0.00 | 20 | 1013.1 |
| 20260506214537 | 28 | 229 | 3.2 | 16.1 | 0.00 | 0.00 | 0.00 | 21 | 1013.3 |
| 20260506213036 | 27 | 7 | 3.2 | 9.7 | 0.00 | 0.00 | 0.00 | 21 | 1013.6 |
| 20260506211538 | 27 | 175 | 3.2 | 9.7 | 0.00 | 0.00 | 0.00 | 21 | 1014.0 |
| 20260506210038 | 27 | 219 | 6.4 | 11.3 | 0.00 | 0.00 | 0.00 | 22 | 1014.3 |
| 20260506204537 | 28 | 108 | 3.2 | 6.4 | 0.00 | 0.00 | 0.00 | 21 | 1014.5 |
| 20260506203042 | 27 | 203 | 3.2 | 8.0 | 0.00 | 0.00 | 0.00 | 22 | 1014.7 |
| 20260506201545 | 27 | 155 | 3.2 | 11.3 | 0.00 | 0.00 | 0.00 | 23 | 1014.8 |
| 20260506200036 | 27 | 164 | 1.6 | 9.7 | 0.00 | 0.00 | 0.00 | 23 | 1014.9 |
| 20260506194548 | 26 | 149 | 4.8 | 11.3 | 0.00 | 0.00 | 0.00 | 23 | 1015.1 |
| 20260506193043 | 26 | 147 | 3.2 | 14.5 | 0.00 | 0.00 | 0.00 | 24 | 1015.2 |
| 20260506191541 | 26 | 108 | 1.6 | 6.4 | 0.00 | 0.00 | 0.00 | 24 | 1015.3 |
| 20260506190037 | 25 | 151 | 3.2 | 12.9 | 0.00 | 0.00 | 0.00 | 24 | 1015.5 |
| 20260506184547 | 26 | 134 | 1.6 | 8.0 | 0.00 | 0.00 | 0.00 | 25 | 1015.7 |
| 20260506183034 | 25 | 128 | 4.8 | 12.9 | 0.00 | 0.00 | 0.00 | 25 | 1016.0 |
| 20260506181540 | 25 | 120 | 3.2 | 8.0 | 0.00 | 0.00 | 0.00 | 27 | 1016.2 |
| 20260506180038 | 25 | 146 | 3.2 | 8.0 | 0.00 | 0.00 | 0.00 | 27 | 1016.2 |
| 20260506174534 | 24 | 94 | 3.2 | 9.7 | 0.00 | 0.00 | 0.00 | 30 | 1016.3 |
| 20260506173040 | 24 | 134 | 3.2 | 9.7 | 0.00 | 0.00 | 0.00 | 30 | 1016.3 |
| 20260506171544 | 23 | 354 | 1.6 | 6.4 | 0.00 | 0.00 | 0.00 | 30 | 1016.3 |
| 20260506170040 | 23 | 114 | 4.8 | 9.7 | 0.00 | 0.00 | 0.00 | 31 | 1016.2 |
| 20260506164538 | 23 | 149 | 1.6 | 8.0 | 0.00 | 0.03 | 0.00 | 32 | 1016.2 |
| 20260506163052 | 22 | 155 | 0.0 | 4.8 | 0.00 | 0.03 | 0.00 | 33 | 1016.2 |
| 20260506161542 | 22 | 161 | 1.6 | 4.8 | 0.00 | 0.03 | 0.00 | 34 | 1016.1 |
| 20260506160034 | 22 | 146 | 1.6 | 6.4 | 0.00 | 0.03 | 0.00 | 33 | 1016.2 |